Snowfall_Accumulation
0.0 0.0 0.0 0.0 0.0 0.0 0.0 0.0 0.0 0.0 0.0 0.0 0.0 0.0 0.0 0.0 0.0 0.0 0.0 0.0 0.0 0.0 0.0 0.0 0.0 0.0 0.0 0.0 0.0 0.0 0.0 0.0 0.0 0.0 0.0 0.0 0.0 0.0 0.0 0.0 0.0 0.0 0.0
0.0 0.0 0.0 0.0 0.0 0.0 0.0 0.0 0.0 0.0 0.0 0.0 0.0 0.0 0.0 0.0 0.0 0.0 0.0 0.0 0.0 0.0 0.0 0.0 0.0 0.0 0.0 0.0 0.0 0.0 0.0 0.0 0.0 0.0 0.0 0.0 0.0 0.0 0.0 0.0 0.0 0.0 0.0
0.0 0.0 0.0 0.0 0.0 0.0 0.0 0.0 0.0 0.0 0.0 0.0 0.0 0.0 0.0 0.0 0.0 0.0 0.0 0.0 0.0 0.0 0.0 0.0 0.0 0.0 0.0 0.0 0.0 0.0 0.0 0.0 0.0 0.0 0.0 0.0 0.0 0.0 0.1 0.0 0.0 0.0 0.0
0.0 0.0 0.0 0.0 0.0 0.0 0.0 0.0 0.0 0.0 0.0 0.0 0.0 0.0 0.0 0.0 0.0 0.0 0.0 0.0 0.0 0.0 0.0 0.0 0.0 0.0 0.0 0.0 0.0 0.0 0.0 0.0 0.1 0.1 0.1 0.1 0.1 0.2 0.1 0.2 0.3 0.2 0.2
0.0 0.0 0.0 0.0 0.0 0.0 0.0 0.0 0.0 0.0 0.0 0.0 0.0 0.0 0.0 0.0 0.0 0.0 0.0 0.0 0.0 0.0 0.0 0.0 0.0 0.0 nan nan 0.0 0.0 0.0 0.0 0.2 0.2 0.2 0.2 0.2 0.3 0.3 0.2 0.4 0.2 0.2
0.0 0.0 0.0 0.0 0.0 0.0 0.0 0.0 0.0 0.0 0.0 0.0 0.0 0.0 0.0 0.0 nan nan 0.0 0.0 0.0 0.0 0.0 0.0 0.0 0.0 0.0 nan nan nan nan 0.0 0.0 0.3 0.2 0.2 0.0 0.2 0.3 0.4 0.6 1.6 3.4
0.0 0.0 0.0 0.0 0.0 0.0 0.0 0.0 0.0 0.0 0.0 0.0 0.0 0.0 0.0 0.0 nan nan nan 0.0 0.0 0.0 0.0 0.0 0.0 0.0 0.0 0.0 nan nan nan nan nan 0.0 0.1 0.1 0.1 0.0 0.1 0.4 0.9 1.6 1.6
0.0 0.0 0.0 0.0 0.0 0.0 0.0 0.0 0.0 0.0 0.0 0.0 0.0 0.0 0.0 0.0 nan nan nan 0.0 0.0 0.0 0.0 0.0 0.0 0.0 0.0 0.0 0.0 0.0 0.0 0.0 0.0 0.0 0.0 0.0 0.0 0.1 0.3 0.7 1.2 1.3 2.9
0.0 0.0 0.0 0.0 0.1 0.1 0.1 0.1 0.0 0.0 0.0 0.0 0.0 0.0 0.0 0.0 nan nan 0.0 0.0 0.0 0.0 0.0 0.0 0.0 0.0 nan nan 0.0 0.1 0.1 0.1 nan nan nan nan nan nan nan 2.6 10.0 14.0 9.9
0.0 0.0 0.0 0.0 0.1 0.1 0.0 0.1 0.1 0.0 0.0 0.4 0.0 0.0 0.0 0.0 nan nan nan 0.2 0.0 0.3 0.0 0.0 0.0 0.0 nan nan 0.1 0.6 1.2 0.6 0.6 1.6 1.1 0.9 nan nan nan 0.8 3.0 12.3 9.6
0.1 0.1 0.1 0.1 0.2 0.1 0.1 0.1 0.1 0.1 0.1 0.1 0.1 0.1 0.1 0.0 0.0 nan nan 0.1 0.6 1.1 1.0 0.9 0.6 nan nan nan nan 1.1 1.2 0.5 1.6 2.0 2.3 2.8 2.1 1.7 2.2 1.9 1.7 4.0 10.2
0.2 0.2 0.3 0.7 0.3 0.2 0.9 0.3 0.6 0.3 0.4 0.3 0.5 0.8 0.9 0.1 nan nan nan nan nan 1.3 1.0 0.7 0.6 nan nan nan 1.0 nan nan 1.5 4.6 5.4 4.8 4.3 3.7 3.7 3.6 4.0 2.8 3.2 3.6
1.4 2.7 2.1 1.5 1.2 0.8 1.3 0.7 2.1 0.6 1.7 0.6 2.0 2.0 1.7 1.5 1.2 nan nan nan nan 1.4 1.0 1.0 nan nan nan nan nan nan 0.8 5.5 6.0 7.9 5.9 4.7 3.8 3.7 4.5 6.5 5.0 4.0 4.0
3.6 1.8 1.2 1.5 0.9 1.1 2.1 2.1 3.0 2.7 2.6 2.7 3.3 3.3 2.4 2.5 1.6 1.4 2.4 1.4 1.0 2.6 nan 2.4 nan 2.1 nan nan 2.4 3.0 3.8 4.8 4.9 6.4 7.2 5.6 5.5 8.2 8.5 6.0 7.3 6.3 10.3
2.5 1.4 1.2 2.1 2.3 1.7 1.6 2.5 2.2 0.9 2.3 5.3 6.5 5.3 7.2 6.8 3.8 1.6 4.7 5.2 4.4 4.6 4.8 7.2 6.5 5.4 5.6 5.0 5.7 5.9 5.7 5.9 6.9 7.3 8.5 9.1 9.7 9.0 8.1 6.3 7.0 8.4 10.8
1.9 3.1 2.9 3.0 2.7 2.4 2.6 2.9 nan nan nan nan nan 4.0 5.6 nan nan nan nan nan nan nan 12.0 12.9 7.5 6.2 6.1 6.4 8.3 8.5 8.4 7.7 7.9 9.2 10.6 10.0 11.4 10.3 10.1 10.3 9.5 10.4 11.7
5.6 4.2 5.0 4.4 4.0 4.0 3.9 4.3 6.9 3.8 nan nan nan nan nan nan nan nan nan nan nan nan 19.2 10.9 10.1 8.0 8.4 8.6 9.3 8.8 10.7 9.0 7.3 10.2 10.2 10.8 11.7 12.1 12.7 11.7 10.3 9.5 12.5
5.3 2.1 5.0 4.6 4.2 4.7 4.8 4.9 5.3 7.6 9.0 6.8 nan nan nan nan nan nan nan nan 19.6 nan 13.8 17.1 16.9 14.8 13.7 12.7 11.3 11.9 12.2 11.9 11.1 10.4 10.8 13.3 15.3 16.4 16.4 15.8 12.5 14.8 14.5
6.9 5.2 5.7 5.5 5.0 5.2 5.8 5.3 5.5 6.4 7.1 9.5 10.0 9.5 4.5 nan nan nan nan 14.4 19.0 17.3 17.1 17.2 14.6 15.7 14.6 15.2 14.7 15.9 14.4 15.8 14.6 17.3 17.3 18.3 17.1 18.3 18.5 14.5 13.2 8.3 9.2
8.1 3.8 6.0 9.2 8.6 7.7 6.0 8.2 8.3 8.9 10.4 11.5 11.6 10.6 13.3 13.3 17.7 17.3 15.1 19.9 21.0 19.6 17.5 18.5 18.4 20.4 22.1 21.3 20.8 19.6 20.5 21.6 20.2 19.8 19.5 19.2 18.4 19.2 16.5 19.5 17.6 16.8 17.3
14.1 12.5 3.3 12.3 14.0 14.4 14.6 12.9 11.8 14.7 13.2 14.5 12.3 11.6 nan 17.4 19.7 20.0 20.1 20.3 21.8 23.3 20.4 21.1 22.1 27.2 27.7 29.9 26.7 26.3 25.0 18.5 20.9 22.2 22.9 22.8 22.5 30.0 18.0 14.7 19.1 19.7 19.2
17.2 17.5 17.3 18.6 14.9 15.8 17.6 14.3 15.1 15.3 15.1 14.2 12.4 12.6 nan 17.1 18.5 19.0 21.8 25.1 29.0 30.1 31.0 34.5 33.5 34.9 32.3 31.2 29.0 27.4 24.2 26.1 26.9 25.7 22.1 23.1 26.1 24.8 23.2 18.9 19.2 17.6 20.3
16.5 15.6 16.5 16.7 16.3 7.5 17.7 19.6 18.8 18.5 18.2 19.5 18.2 19.6 21.3 23.3 23.0 23.9 29.3 31.7 28.3 27.6 29.4 30.6 29.4 29.0 27.4 29.1 26.5 25.9 27.5 28.2 27.8 32.3 28.0 27.4 27.0 28.6 25.8 24.2 21.9 24.3 22.8
15.8 15.9 15.8 19.3 18.7 17.6 19.8 20.7 19.0 7.4 20.0 21.4 28.3 25.5 20.1 22.9 28.6 24.4 24.8 27.4 24.6 32.7 26.8 27.8 25.0 24.7 25.5 31.6 36.1 35.2 36.9 37.9 37.3 35.3 33.2 28.0 26.9 22.0 24.4 26.2 22.1 20.8 19.6
20.1 19.0 18.9 18.0 23.0 20.8 19.9 22.7 19.5 23.9 26.1 22.9 25.1 21.3 21.9 20.6 21.2 26.0 25.1 22.3 24.1 22.8 21.0 20.7 20.9 21.2 21.6 22.5 27.3 31.4 29.4 4.9 20.9 5.3 31.6 25.5 28.1 28.0 27.5 24.3 23.0 21.5 19.4
17.8 19.0 19.7 20.1 20.0 21.0 21.3 20.9 21.4 18.7 21.7 22.3 21.3 21.7 19.7 19.8 19.4 21.1 20.2 20.5 18.1 18.7 19.2 20.4 20.3 18.8 18.0 19.3 20.0 7.6 4.6 4.2 26.3 4.6 28.4 26.5 28.2 26.8 26.3 26.1 24.7 24.0 20.9
Water_Equivalent
0.00 0.00 0.00 0.00 0.00 0.00 0.00 0.00 0.00 0.00 0.00 0.00 0.00 0.00 0.00 0.00 0.00 0.00 0.00 0.00 0.00 0.00 0.00 0.00 0.00 0.00 0.00 0.00 0.00 0.00 0.00 0.00 0.00 0.00 0.00 0.00 0.00 0.00 0.00 0.00 0.00 0.00 0.00
0.00 0.00 0.00 0.00 0.00 0.00 0.00 0.00 0.00 0.00 0.00 0.00 0.00 0.00 0.00 0.00 0.00 0.00 0.00 0.00 0.00 0.00 0.00 0.00 0.00 0.00 0.00 0.00 0.00 0.00 0.00 0.00 0.00 0.00 0.00 0.00 0.00 0.00 0.00 0.00 0.00 0.00 0.00
0.00 0.00 0.00 0.00 0.00 0.00 0.00 0.00 0.00 0.00 0.00 0.00 0.00 0.00 0.00 0.00 0.00 0.00 0.00 0.00 0.00 0.00 0.00 0.00 0.00 0.00 0.00 0.00 0.00 0.00 0.00 0.00 0.00 0.01 0.01 0.00 0.01 0.01 0.03 0.01 0.00 0.00 0.00
0.00 0.00 0.00 0.00 0.00 0.00 0.00 0.00 0.00 0.00 0.00 0.00 0.00 0.00 0.00 0.00 0.00 0.00 0.00 0.00 0.00 0.00 0.00 0.00 0.00 0.00 0.00 0.00 0.00 0.00 0.00 0.01 0.02 0.04 0.05 0.04 0.04 0.06 0.05 0.06 0.09 0.07 0.07
0.00 0.00 0.00 0.00 0.00 0.00 0.00 0.00 0.00 0.00 0.00 0.00 0.00 0.00 0.00 0.00 0.00 0.00 0.00 0.00 0.00 0.00 0.00 0.00 0.00 0.00 nan nan 0.00 0.00 0.00 0.02 0.07 0.08 0.08 0.07 0.07 0.11 0.10 0.09 0.13 0.09 0.07
0.00 0.00 0.00 0.00 0.00 0.00 0.00 0.00 0.00 0.00 0.00 0.00 0.00 0.00 0.00 0.00 nan nan 0.00 0.00 0.00 0.00 0.00 0.00 0.00 0.00 0.00 nan nan nan nan 0.00 0.01 0.11 0.08 0.07 0.00 0.09 0.10 0.14 0.18 0.33 0.50
0.00 0.00 0.00 0.00 0.00 0.00 0.00 0.00 0.01 0.00 0.00 0.00 0.00 0.00 0.00 0.00 nan nan nan 0.00 0.00 0.00 0.00 0.00 0.00 0.00 0.02 0.00 nan nan nan nan nan 0.00 0.02 0.03 0.02 0.01 0.02 0.07 0.13 0.30 0.31
0.00 0.00 0.01 0.01 0.01 0.01 0.01 0.01 0.01 0.00 0.00 0.00 0.00 0.00 0.00 0.00 nan nan nan 0.00 0.00 0.00 0.00 0.00 0.00 0.00 0.00 0.00 0.00 0.00 0.00 0.00 0.00 0.00 0.01 0.01 0.00 0.02 0.04 0.10 0.18 0.19 0.46
0.00 0.00 0.01 0.01 0.02 0.02 0.02 0.02 0.01 0.01 0.01 0.00 0.00 0.00 0.00 0.00 nan nan 0.00 0.00 0.00 0.00 0.00 0.00 0.00 0.00 nan nan 0.01 0.02 0.02 0.01 nan nan nan nan nan nan nan 0.59 2.03 2.60 1.54
0.00 0.00 0.01 0.01 0.02 0.02 0.01 0.02 0.02 0.01 0.01 0.14 0.01 0.01 0.00 0.00 nan nan nan 0.09 0.01 0.13 0.01 0.01 0.01 0.00 nan nan 0.03 0.09 0.19 0.10 0.11 0.39 0.20 0.17 nan nan nan 0.14 0.62 2.03 1.46
0.02 0.02 0.02 0.02 0.04 0.02 0.02 0.02 0.03 0.03 0.02 0.04 0.04 0.02 0.02 0.01 0.01 nan nan 0.05 0.18 0.30 0.29 0.24 0.16 nan nan nan nan 0.18 0.18 0.07 0.28 0.36 0.42 0.57 0.43 0.33 0.47 0.37 0.28 0.66 1.41
0.04 0.05 0.07 0.15 0.08 0.04 0.22 0.09 0.17 0.08 0.10 0.09 0.11 0.21 0.25 0.02 nan nan nan nan nan 0.35 0.21 0.19 0.15 nan nan nan 0.25 nan nan 0.36 1.05 1.18 1.00 0.81 0.63 0.60 0.55 0.58 0.34 0.44 0.53
0.26 0.50 0.41 0.32 0.27 0.18 0.31 0.15 0.52 0.15 0.39 0.12 0.44 0.42 0.35 0.36 0.34 nan nan nan nan 0.35 0.26 0.22 nan nan nan nan nan nan 0.27 1.01 1.20 1.49 0.99 0.70 0.53 0.47 0.45 0.66 0.48 0.40 0.40
0.71 0.30 0.20 0.29 0.20 0.21 0.45 0.49 0.70 0.58 0.51 0.56 0.67 0.66 0.48 0.49 0.34 0.36 0.61 0.38 0.26 0.62 nan 0.54 nan 0.43 nan nan 0.55 0.59 0.73 0.82 0.81 0.96 0.96 0.70 0.69 0.95 0.95 0.68 0.88 0.76 1.25
0.42 0.20 0.23 0.41 0.45 0.29 0.30 0.52 0.44 0.18 0.51 1.10 1.40 1.02 1.29 1.22 0.73 0.33 1.03 1.19 1.06 1.06 1.21 1.53 1.30 0.97 0.96 0.85 1.02 1.02 0.97 0.96 1.08 1.08 1.13 1.14 1.16 1.08 0.98 0.78 0.84 1.08 1.35
0.25 0.47 0.49 0.51 0.45 0.39 0.41 0.45 nan nan nan nan nan 0.84 1.27 nan nan nan nan nan nan nan 2.75 2.58 1.26 1.01 0.90 0.95 1.20 1.12 1.09 1.12 1.02 1.19 1.34 1.30 1.38 1.20 1.17 1.31 1.23 1.34 1.42
0.71 0.48 0.65 0.57 0.53 0.58 0.61 0.69 0.89 0.64 nan nan nan nan nan nan nan nan nan nan nan nan 4.08 1.95 1.62 1.17 1.18 1.12 1.20 1.11 1.23 1.06 0.76 1.23 1.17 1.27 1.40 1.51 1.65 1.44 1.26 1.17 1.64
0.68 0.68 0.71 0.67 0.65 0.72 0.77 0.80 0.87 1.08 1.22 0.96 nan nan nan nan nan nan nan nan 3.82 nan 2.84 2.99 2.57 2.11 1.73 1.60 1.36 1.38 1.38 1.32 1.24 1.24 1.29 1.74 2.05 2.20 2.12 2.09 1.60 1.97 1.88
0.79 0.65 0.74 0.72 0.69 0.75 0.84 0.75 0.82 0.86 0.90 1.16 1.17 1.24 1.04 nan nan nan nan 2.46 3.18 2.75 2.70 2.78 2.32 2.23 1.85 1.98 1.88 2.10 1.80 1.92 1.79 2.33 2.37 2.55 2.37 2.53 2.54 1.89 1.62 1.44 1.52
0.87 0.93 0.86 1.13 1.03 0.91 0.67 0.88 0.83 0.89 1.03 1.18 1.22 1.10 1.83 2.13 2.81 2.84 2.38 3.35 3.37 3.00 2.55 2.76 2.77 3.11 3.29 3.08 2.99 2.75 2.82 3.01 2.74 2.75 2.70 2.67 2.55 2.75 2.01 2.62 2.33 2.06 2.31
1.48 1.25 1.08 1.19 1.43 1.49 1.52 1.28 1.11 1.49 1.30 1.50 1.22 1.17 nan 2.20 2.31 2.49 2.81 2.66 3.08 3.34 2.76 2.98 3.15 4.11 4.26 4.73 3.96 3.82 3.53 2.31 2.82 3.06 3.24 3.23 3.16 4.06 2.47 1.81 2.49 2.63 2.56
1.72 1.78 1.75 1.90 1.38 1.49 1.75 1.32 1.42 1.46 1.42 1.30 1.09 1.23 nan 1.69 1.90 1.97 2.23 2.82 3.46 3.59 4.09 4.76 4.65 5.05 4.49 4.23 3.82 3.59 3.01 3.43 3.69 3.44 2.80 2.95 3.48 3.11 3.08 2.29 2.39 2.13 2.68
1.51 1.34 1.46 1.47 1.44 1.59 1.66 1.97 1.80 1.77 1.68 1.87 1.71 1.77 1.98 2.44 2.28 2.29 3.20 3.53 2.93 2.80 3.17 3.41 3.23 3.14 2.98 3.32 2.97 2.88 3.04 3.28 3.33 4.35 3.15 3.20 3.11 3.54 3.21 2.93 2.64 2.96 2.84
1.35 1.38 1.37 1.85 1.69 1.50 1.79 1.91 1.68 1.68 1.82 2.00 3.04 2.57 1.73 2.15 2.96 2.25 2.33 2.75 2.33 3.74 2.74 2.92 2.47 2.42 2.62 3.85 4.84 4.74 5.11 5.36 5.13 4.72 4.26 3.04 2.94 2.56 2.63 3.05 2.46 2.38 2.06
1.79 1.58 1.60 1.50 2.25 1.85 1.73 2.12 1.61 2.22 2.57 2.10 2.50 1.89 1.93 1.77 1.92 2.70 2.53 2.11 2.37 2.19 1.93 1.90 1.98 2.04 2.10 2.23 3.04 3.89 4.08 1.61 3.03 1.74 3.75 2.69 3.11 3.15 3.01 2.60 2.45 2.18 1.95
1.46 1.58 1.65 1.71 1.69 1.86 1.95 1.91 1.99 1.61 2.02 2.15 1.99 2.04 1.76 1.76 1.76 2.10 1.95 1.97 1.61 1.70 1.78 1.95 1.95 1.75 1.65 1.85 1.96 1.84 1.53 1.37 3.24 1.53 3.05 2.59 2.87 2.61 2.56 2.58 2.41 2.34 1.95
SL_Ratio
nan nan nan nan nan nan nan nan nan nan nan nan nan nan nan nan nan nan nan nan nan nan nan nan nan nan nan nan nan nan nan nan nan nan nan nan nan nan nan nan nan nan nan
nan nan nan nan nan nan nan nan nan nan nan nan nan nan nan nan nan nan nan nan nan nan nan nan nan nan nan nan nan nan nan nan nan nan nan nan nan nan nan nan nan nan nan
nan nan nan nan nan nan nan nan nan nan nan nan nan nan nan nan nan nan nan nan nan nan nan nan nan nan nan nan nan nan nan nan nan 2.9 2.5 2.5 2.7 2.5 2.5 2.6 nan nan nan
nan nan nan nan nan nan nan nan nan nan nan nan nan nan nan nan nan nan nan nan nan nan nan nan nan nan nan nan nan nan nan 2.5 2.6 2.6 2.5 2.5 2.5 2.5 2.5 2.5 2.8 2.5 2.5
nan nan nan nan nan nan nan nan nan nan nan nan nan nan nan nan nan nan nan nan nan nan nan nan nan nan nan nan 2.5 3.3 3.8 2.7 2.6 2.6 2.5 2.5 2.5 2.8 2.9 2.7 2.8 2.8 3.1
nan nan nan nan nan nan nan nan nan nan nan nan nan nan nan nan nan nan nan nan nan nan nan nan nan nan nan nan nan nan nan nan 5.0 2.7 2.7 2.9 2.9 2.7 2.7 3.2 3.6 4.7 6.8
nan nan nan 5.0 2.5 1.7 2.5 2.9 2.5 0.0 nan nan nan nan nan nan nan nan nan 2.5 1.7 nan nan nan nan nan 2.5 nan nan nan nan nan nan 5.0 5.0 3.5 6.3 5.5 4.6 6.2 6.7 5.4 5.1
nan nan 2.5 2.7 2.8 2.9 2.9 3.2 2.7 2.9 2.0 0.0 nan nan nan nan nan nan nan nan nan nan nan nan nan nan nan nan 5.0 4.0 5.0 3.3 5.0 5.0 6.7 6.0 5.0 4.6 5.8 6.3 6.6 6.7 6.4
nan 3.0 2.7 3.1 3.3 3.5 3.8 3.4 3.0 3.1 2.7 2.5 0.0 2.5 0.0 nan nan nan nan nan nan nan nan nan nan nan nan nan 4.4 5.4 5.1 5.3 nan nan nan nan nan nan nan 4.5 5.0 5.4 6.5
2.5 3.0 3.2 3.3 3.8 3.8 3.5 3.7 3.5 2.9 3.1 2.9 2.6 2.7 2.5 2.5 nan nan nan 2.5 3.6 2.7 2.9 3.1 2.7 3.8 nan nan 5.5 6.1 6.4 6.1 5.6 4.1 5.6 5.2 nan nan nan 5.7 4.9 6.1 6.5
3.5 4.2 4.3 3.9 4.3 3.7 3.6 3.8 3.6 3.5 3.6 3.4 3.5 3.3 2.8 2.5 2.8 nan nan 2.6 3.2 3.6 3.6 3.9 3.7 nan nan nan nan 6.4 6.8 6.7 5.7 5.6 5.6 5.0 4.8 5.1 4.6 5.1 6.0 6.0 7.2
4.9 5.0 4.9 4.6 4.2 4.0 4.0 3.8 3.4 3.3 3.7 4.1 4.3 3.9 3.7 3.7 nan nan nan nan nan 3.8 4.6 3.8 3.7 nan nan nan 3.8 nan nan 4.1 4.4 4.6 4.8 5.3 5.9 6.2 6.5 6.9 8.4 7.2 6.7
5.5 5.3 5.1 4.8 4.5 4.3 4.1 4.3 4.1 4.0 4.3 5.1 4.7 4.8 4.8 4.3 3.6 nan nan nan nan 3.9 3.8 4.4 nan nan nan nan nan nan 3.0 5.4 5.0 5.3 6.0 6.7 7.2 7.8 10.2 9.9 10.5 10.1 10.1
5.1 6.0 5.8 5.4 4.6 5.1 4.5 4.3 4.3 4.6 5.0 4.9 5.0 5.1 5.1 5.1 4.6 4.0 3.9 3.7 3.6 4.2 nan 4.6 nan 4.9 nan nan 4.2 5.1 5.2 5.9 6.0 6.6 7.4 8.0 8.0 8.6 9.0 8.8 8.3 8.3 8.2
6.0 7.1 5.5 5.1 5.1 5.6 5.4 4.8 5.0 4.8 4.6 4.9 4.7 5.1 5.6 5.5 5.2 4.6 4.5 4.4 4.1 4.3 4.0 4.7 5.0 5.6 5.8 5.8 5.6 5.8 5.9 6.1 6.4 6.8 7.5 8.0 8.4 8.3 8.3 8.1 8.3 7.7 8.0
7.6 6.6 6.0 5.8 5.9 6.2 6.4 6.4 nan nan nan nan nan 4.8 4.4 nan nan nan nan nan nan nan 4.4 5.0 6.0 6.1 6.8 6.7 6.9 7.6 7.7 6.9 7.7 7.7 7.9 7.7 8.2 8.6 8.6 7.9 7.7 7.8 8.3
8.0 8.9 7.7 7.7 7.5 6.9 6.5 6.2 7.7 5.9 nan nan nan nan nan nan nan nan nan nan nan nan 4.7 5.6 6.2 6.8 7.1 7.6 7.8 7.9 8.7 8.5 9.7 8.3 8.7 8.4 8.4 8.0 7.7 8.1 8.2 8.1 7.6
7.8 3.0 7.0 6.9 6.5 6.5 6.3 6.2 6.1 7.1 7.4 7.0 nan nan nan nan nan nan nan nan 5.1 nan 4.9 5.7 6.6 7.0 7.9 7.9 8.3 8.6 8.9 9.0 8.9 8.4 8.3 7.6 7.5 7.5 7.7 7.6 7.8 7.5 7.7
8.7 8.0 7.8 7.6 7.3 7.0 6.9 7.1 6.7 7.4 7.9 8.2 8.6 7.6 4.4 nan nan nan nan 5.8 6.0 6.3 6.3 6.2 6.3 7.0 7.9 7.7 7.8 7.6 8.0 8.2 8.2 7.4 7.3 7.1 7.2 7.2 7.3 7.6 8.1 5.8 6.1
9.3 4.0 6.9 8.1 8.4 8.5 9.1 9.3 10.0 10.0 10.1 9.7 9.6 9.6 7.3 6.2 6.3 6.1 6.4 5.9 6.2 6.5 6.9 6.7 6.7 6.6 6.7 6.9 7.0 7.1 7.3 7.2 7.4 7.2 7.2 7.2 7.2 7.0 8.2 7.4 7.5 8.2 7.5
9.5 10.0 3.0 10.3 9.7 9.6 9.6 10.1 10.6 9.9 10.1 9.6 10.0 9.9 nan 7.9 8.5 8.0 7.2 7.6 7.1 7.0 7.4 7.1 7.0 6.6 6.5 6.3 6.8 6.9 7.1 8.0 7.4 7.2 7.0 7.1 7.1 7.4 7.3 8.1 7.7 7.5 7.5
10.0 9.8 9.8 9.8 10.9 10.6 10.0 10.9 10.6 10.5 10.6 11.0 11.3 10.3 nan 10.1 9.7 9.7 9.7 8.9 8.4 8.4 7.6 7.3 7.2 6.9 7.2 7.4 7.6 7.6 8.0 7.6 7.3 7.5 7.9 7.8 7.5 8.0 7.5 8.3 8.0 8.3 7.6
10.9 11.7 11.3 11.3 11.3 4.8 10.7 10.0 10.4 10.5 10.8 10.4 10.6 11.1 10.7 9.5 10.1 10.5 9.2 9.0 9.6 9.9 9.3 9.0 9.1 9.3 9.2 8.8 8.9 9.0 9.0 8.6 8.3 7.4 8.9 8.6 8.7 8.1 8.0 8.3 8.3 8.2 8.0
11.7 11.5 11.5 10.5 11.0 11.8 11.0 10.8 11.3 4.4 11.0 10.7 9.3 9.9 11.6 10.6 9.7 10.9 10.6 9.9 10.6 8.7 9.8 9.5 10.2 10.2 9.7 8.2 7.4 7.4 7.2 7.1 7.3 7.5 7.8 9.2 9.1 8.6 9.3 8.6 9.0 8.8 9.5
11.2 12.0 11.8 12.0 10.3 11.2 11.5 10.7 12.1 10.8 10.2 10.9 10.1 11.3 11.3 11.6 11.1 9.6 9.9 10.6 10.2 10.4 10.9 10.9 10.6 10.4 10.3 10.1 9.0 8.1 7.2 3.0 6.9 3.0 8.4 9.5 9.0 8.9 9.1 9.4 9.4 9.9 9.9
12.2 12.0 11.9 11.7 11.9 11.3 10.9 11.0 10.8 11.7 10.7 10.4 10.7 10.6 11.2 11.2 11.0 10.0 10.4 10.4 11.2 11.0 10.7 10.4 10.4 10.7 10.9 10.4 10.2 4.1 3.0 3.0 8.1 3.0 9.3 10.3 9.8 10.3 10.3 10.1 10.3 10.2 10.7